Starlink 31909

operational
NORAD ID: 59663 Int'l Des: 2024-084 Owner: SPXS Country: US Constellation: starlink
LEOCIRCULAR

Starlink 31909について

説明を読み込み中...

リアルタイム位置

3D地球を読み込み中...

次回通過

高度履歴

Altitude vs Time

uPlot chart will show altitude changes over time

軌道要素

1 59663U 24084K 25259.60338237 -.00001250 00000-0 -35944-4 0 9991
2 59663 43.0015 304.5835 0001197 264.0015 96.0701 15.27564313 77754
Epoch: Sep 16, 2025 • Age: 20 hours

現在のステータス

高度 482.3 km
速度 7.63 km/s
衛星直下点 9.99°N, 149.77°E
打ち上げ日 May 6, 2024
運用期間 1.3 years
タイプ internet

技術仕様

分類 Payload
質量 730.00 kg
乾燥質量 700.00 kg
総質量 730.00 kg
長さ 0.30 m
直径 4.10 m
スパン 29.00 m
形状 Box + pan
製造者 SPXS
バスタイプ Starlink V2M
フェーズステータス In Orbit
所有者/国 SPXS/US

大規模コンステレーション

Loading constellations...